Flag for United Kingdom Weather past 2 weeks in Reading, England, United Kingdom

Now
73 °F

Broken clouds.


Feels Like: 76 °F
Forecast: 58 / 78 °F
Wind: 14 mph from Southeast

Location: Benson

Current Time: Jul 25, 2014 at 5:11:13 PM

Latest Report: Jul 25, 2014 at 3:50 PM


Visibility: N/A

Pressure: 30.01 "Hg

Humidity: 69%

Dew point: 63 °F

Location of ReadingLocation

Historic Weather in Reading — Graph

°F

Reading temperature yesterday

Maximum temperature yesterday: 82 °F (at 3:50 PM)
Minimum temperature yesterday: 57 °F (at 4:50 AM)
Average temperature yesterday: 70 °F

Past Weeks' High & Low Weather Summary

 TemperatureHumidityPressure
High82 °F (Jul 24, 3:50 PM)100% (Jul 11, 2:50 AM)30.24 "Hg (Jul 11, 2:50 AM)
Low45 °F (Jul 14, 2:50 AM)39% (Jul 10, 3:50 PM)29.68 "Hg (Jul 19, 5:50 PM)
Average67 °F73%30.00 "Hg
* Reported Jul 10 3:50 PM — Jul 25 3:50 PM, Reading, Weather by CustomWeather, © 2014

Note: Actual official high and low records may vary slightly from our data, if they occured in-between our weather recording intervals... More about our weather records

Advertising

Reading weather history for previous 24 hours

 ConditionsComfort  
Time TempWeatherWind HumidityBarometerVisibility
3:50 PM
Jul 25
73 °FBroken clouds.14 mph69%30.01 "HgN/A
2:50 PM79 °FPartly sunny.12 mph51%30.01 "HgN/A
1:50 PM79 °FScattered clouds.10 mph54%30.01 "HgN/A
12:50 PM77 °FPassing clouds.10 mph57%30.04 "HgN/A
11:50 AM73 °FPassing clouds.9 mph65%30.07 "HgN/A
10:50 AM68 °FPassing clouds.10 mph78%30.07 "HgN/A
9:50 AM64 °FLow clouds.13 mph88%30.07 "Hg5 mi
8:50 AM64 °FPartly sunny.8 mph88%30.07 "Hg4 mi
7:50 AM61 °FFog.7 mph94%30.07 "Hg3 mi
6:50 AM59 °FLow clouds.7 mph100%30.07 "Hg2 mi
5:50 AM57 °FPassing clouds.3 mph100%30.04 "Hg4 mi
4:50 AM55 °FPassing clouds.3 mph100%30.04 "Hg3 mi
3:50 AM57 °FClear.3 mph94%30.04 "Hg4 mi
2:50 AM59 °FClear.5 mph94%30.04 "HgN/A
1:50 AM57 °FClear.5 mph88%30.07 "HgN/A
12:50 AM59 °FClear.3 mph82%30.07 "HgN/A
11:50 PM
Jul 24
59 °FClear.6 mph82%30.07 "HgN/A
10:50 PM66 °FClear.8 mph68%30.07 "HgN/A
9:50 PM70 °FPassing clouds.9 mph57%30.04 "HgN/A
8:50 PM73 °FPartly sunny.8 mph53%30.04 "HgN/A
7:50 PM77 °FPassing clouds.8 mph51%30.01 "HgN/A
6:50 PM81 °FPassing clouds.10 mph48%29.98 "HgN/A
5:50 PM79 °FSunny.10 mph51%30.01 "Hg10 mi
Weather by CustomWeather, © 2014

See weather overviewHow to use our weather pages